Starlink 2612

operational
NORAD ID: 48379 Int'l Des: 2021-038 Owner: SPXS Country: US Constellation: starlink
LEOCIRCULAR

About Starlink 2612

Description loading...

Live Position

Loading 3D Globe...

Upcoming Passes

Altitude History

Altitude vs Time

uPlot chart will show altitude changes over time

Two-Line Element Set

1 48379U 21038AC 26101.97697392 .00109504 00000-0 36012-2 0 9990
2 48379 53.1599 191.1230 0000673 104.1874 255.9201 15.30681672272355
Epoch: Apr 11, 2026 • Age: 17 hours

Current Status

Altitude 475.7 km
Velocity 7.63 km/s
Sub-Earth Point 35.27°N, 125.39°E
Launch Date May 4, 2021
Age 4.9 years
Type internet

Technical Details

Classification Payload
Mass 260.00 kg
Dry Mass 248.00 kg
Total Mass 260.00 kg
Length 0.20 m
Diameter 2.80 m
Span 9.00 m
Shape Box + pan
Manufacturer SPXS
Bus Type Starlink
Phase Status In Orbit
Owner/State SPXS/US

Large Constellations

Loading constellations...